Flag for Norway Weather past 2 weeks in Fauske, Norway

Now
46 °F

Partly sunny.


Feels Like: 40 °F
Forecast: 43 / 46 °F
Wind: 15 mph from Northwest

Location: Bodo Vi

Current Time: Jun 4, 2015 at 2:05:24 AM

Latest Report: Jun 4, 2015 at 12:50 AM


Visibility: N/A

Pressure: 29.47 "Hg

Humidity: 76%

Dew point: 39 °F

Location of FauskeLocation

Historic Weather in Fauske — Graph

°F

Fauske temperature yesterday

Maximum temperature yesterday: 55 °F (at 11:50 AM)
Minimum temperature yesterday: 46 °F (at 12:50 AM)
Average temperature yesterday: 51 °F

Past Weeks' High & Low Weather Summary

 TemperatureHumidityPressure
High59 °F (May 29, 4:50 PM)100% (May 21, 12:50 AM)29.89 "Hg (May 21, 12:50 AM)
Low37 °F (May 25, 1:50 AM)39% (May 30, 6:50 PM)29.15 "Hg (Jun 1, 9:50 PM)
Average48 °F73%29.61 "Hg
* Reported May 20 12:20 AM — Jun 4 12:50 AM, Fauske, Weather by CustomWeather, © 2015

Note: Actual official high and low records may vary slightly from our data, if they occured in-between our weather recording intervals... More about our weather records

Advertising

Fauske weather history for previous 24 hours

 ConditionsComfort  
Time TempWeatherWind HumidityBarometerVisibility
12:50 AM
Thu, Jun 4
46 °FPartly sunny.15 mph76%29.47 "HgN/A
11:50 PM
Wed, Jun 3
46 °FBroken clouds.10 mph82%29.45 "HgN/A
11:20 PM46 °FBroken clouds.8 mph82%29.45 "HgN/A
10:50 PM46 °FScattered clouds.8 mph82%29.42 "HgN/A
10:20 PM48 °FBroken clouds.8 mph76%29.42 "HgN/A
9:50 PM48 °FSprinkles. Broken clouds.8 mph66%29.42 "HgN/A
9:20 PM48 °FBroken clouds.9 mph87%29.39 "HgN/A
8:50 PM48 °FBroken clouds.9 mph87%29.39 "HgN/A
8:20 PM48 °FBroken clouds.10 mph87%29.39 "HgN/A
7:50 PM50 °FBroken clouds.10 mph82%29.36 "HgN/A
7:20 PM50 °FBroken clouds.10 mph82%29.36 "HgN/A
6:50 PM50 °FThunderstorms. Broken clouds.8 mph82%29.36 "HgN/A
6:20 PM52 °FBroken clouds.9 mph77%29.33 "HgN/A
5:50 PM50 °FBroken clouds.9 mph82%29.33 "HgN/A
5:20 PM52 °FPartly sunny.8 mph77%29.30 "HgN/A
4:50 PM54 °FScattered clouds.7 mph63%29.30 "HgN/A
4:20 PM55 °FPassing clouds.7 mph55%29.30 "HgN/A
3:50 PM55 °FPassing clouds.7 mph51%29.27 "HgN/A
3:20 PM55 °FScattered clouds.9 mph55%29.27 "HgN/A
2:50 PM54 °FScattered showers. Scattered clouds.8 mph58%29.24 "HgN/A
2:20 PM52 °FScattered clouds.7 mph67%29.24 "HgN/A
1:50 PM54 °FScattered clouds.8 mph63%29.24 "HgN/A
1:20 PM55 °FPassing clouds.8 mph63%29.21 "HgN/A
12:50 PM55 °FPassing clouds.9 mph63%29.21 "HgN/A
12:20 PM55 °FScattered clouds.6 mph55%29.21 "HgN/A
11:50 AM55 °FScattered clouds.7 mph51%29.21 "HgN/A
11:20 AM54 °FSunny.9 mph58%29.18 "Hg10 mi
10:50 AM54 °FSunny.9 mph58%29.18 "Hg10 mi
10:20 AM54 °FSunny.13 mph63%29.18 "Hg10 mi
9:50 AM52 °FSunny.13 mph62%29.18 "Hg10 mi
9:20 AM52 °FSunny.15 mph62%29.18 "Hg10 mi
8:50 AM52 °FSunny.13 mph62%29.18 "Hg10 mi
8:20 AM52 °FSunny.16 mph62%29.18 "Hg10 mi
7:50 AM50 °FSunny.15 mph62%29.18 "Hg10 mi
7:20 AM50 °FSunny.16 mph62%29.18 "Hg10 mi
6:50 AM48 °FSunny.17 mph66%29.18 "Hg10 mi
6:20 AM50 °FSunny.17 mph58%29.18 "Hg10 mi
5:50 AM48 °FSunny.18 mph66%29.18 "Hg10 mi
5:20 AM48 °FSunny.18 mph62%29.21 "Hg10 mi
4:50 AM48 °FSunny.17 mph58%29.21 "Hg10 mi
3:50 AM46 °FSunny.16 mph66%29.21 "Hg10 mi
2:50 AM46 °FSunny.16 mph66%29.24 "Hg10 mi
Weather by CustomWeather, © 2015

See weather overviewHow to use our weather pages